{"data":{"norad_id":56797,"epoch":"2026-05-25T02:45:42.593184Z","epoch_age_seconds":75520,"freshness":"FRESH","line1":"1 56797U 23078AG  26145.11507631  .00000456  00000+0  46044-4 0  9992","line2":"2 56797  69.9984 151.9289 0003959 267.4322  92.6384 14.98340582164128","mean_motion":14.98340582,"eccentricity":0.0003959,"inclination_deg":69.9984,"raan_deg":151.9289,"arg_perigee_deg":267.4322,"mean_anomaly_deg":92.6384,"bstar":4.6044e-5,"rev_number":16412,"period_min":96.106320371959,"perigee_km":569.27159876474,"apogee_km":574.77473558511,"semimajor_km":6950.1601671749,"source":"CELESTRAK","updated_at":"2026-05-25T13:38:18.157762Z"}}